| time (UTC) | temp F | wind direction | speed knots | gust knots | rain 1hr in | rain 24hr in | rain mn in | humidity % | barometer mb |
| 20260504182534 | 53 | 305 | 3.5 | 8.7 | 0.00 | 0.00 | 0.00 | 68 | 1015.3 |
| 20260504182030 | 53 | 296 | 2.6 | 8.7 | 0.00 | 0.00 | 0.00 | 68 | 1015.2 |
| 20260504181542 | 53 | 297 | 4.3 | 8.7 | 0.00 | 0.00 | 0.00 | 68 | 1015.3 |
| 20260504181033 | 53 | 313 | 2.6 | 7.8 | 0.00 | 0.00 | 0.00 | 67 | 1015.1 |
| 20260504180533 | 53 | 307 | 3.5 | 7.8 | 0.00 | 0.00 | 0.00 | 67 | 1015.2 |
| 20260504180044 | 53 | 286 | 3.5 | 8.7 | 0.00 | 0.00 | 0.00 | 67 | 1015.2 |
| 20260504175530 | 53 | 311 | 2.6 | 8.7 | 0.00 | 0.00 | 0.00 | 67 | 1015.2 |
| 20260504175031 | 53 | 339 | 5.2 | 11.3 | 0.00 | 0.00 | 0.00 | 65 | 1015.2 |
| 20260504174545 | 54 | 292 | 5.2 | 11.3 | 0.00 | 0.00 | 0.00 | 65 | 1015.2 |
| 20260504174030 | 54 | 255 | 2.6 | 7.8 | 0.00 | 0.00 | 0.00 | 65 | 1015.2 |
| 20260504173531 | 54 | 286 | 3.5 | 7.0 | 0.00 | 0.00 | 0.00 | 65 | 1015.1 |
| 20260504173036 | 54 | 288 | 2.6 | 9.6 | 0.00 | 0.00 | 0.00 | 65 | 1015.3 |
| 20260504172530 | 54 | 279 | 3.5 | 12.2 | 0.00 | 0.00 | 0.00 | 66 | 1015.1 |
| 20260504172119 | 54 | 230 | 6.1 | 12.2 | 0.00 | 0.00 | 0.00 | 64 | 1015.1 |
| 20260504171545 | 55 | 285 | 4.3 | 9.6 | 0.00 | 0.00 | 0.00 | 64 | 1015.1 |
| 20260504171128 | 54 | 236 | 2.6 | 9.6 | 0.00 | 0.00 | 0.00 | 65 | 1015.2 |
| 20260504170533 | 54 | 296 | 3.5 | 9.6 | 0.00 | 0.00 | 0.00 | 64 | 1015.2 |
| 20260504151030 | 56 | 284 | 3.5 | 12.2 | 0.00 | 0.00 | 0.00 | 59 | 1015.2 |
| 20260504150535 | 56 | 284 | 5.2 | 12.2 | 0.00 | 0.00 | 0.00 | 58 | 1015.1 |
| 20260504141031 | 55 | 296 | 2.6 | 9.6 | 0.00 | 0.00 | 0.00 | 56 | 1015.2 |
| 20260504140534 | 55 | 286 | 2.6 | 9.6 | 0.00 | 0.00 | 0.00 | 56 | 1015.3 |
| 20260504130534 | 55 | 288 | 2.6 | 7.8 | 0.00 | 0.00 | 0.00 | 57 | 1015.4 |
| 20260504110534 | 52 | 277 | 4.3 | 9.6 | 0.00 | 0.00 | 0.00 | 61 | 1015.7 |
| 20260504100531 | 51 | 302 | 3.5 | 7.8 | 0.00 | 0.00 | 0.00 | 64 | 1015.7 |
| 20260504081546 | 50 | 260 | 3.5 | 7.0 | 0.00 | 0.00 | 0.00 | 73 | 1015.5 |
| 20260504081031 | 50 | 296 | 2.6 | 7.0 | 0.00 | 0.00 | 0.00 | 73 | 1015.4 |
| 20260504080531 | 50 | 291 | 2.6 | 7.8 | 0.00 | 0.00 | 0.00 | 73 | 1015.5 |
| 20260504050533 | 45 | 0 | 0.0 | 0.0 | 0.00 | 0.00 | 0.00 | 85 | 1014.4 |
| 20260504045531 | 45 | 283 | 0.0 | 0.0 | 0.00 | 0.03 | 0.00 | 84 | 1014.4 |
| 20260504045035 | 45 | 0 | 0.0 | 0.0 | 0.00 | 0.03 | 0.00 | 84 | 1014.4 |
| 20260504044543 | 45 | 0 | 0.0 | 0.0 | 0.00 | 0.03 | 0.00 | 84 | 1014.5 |
| 20260504044035 | 45 | 0 | 0.0 | 0.0 | 0.00 | 0.03 | 0.00 | 84 | 1014.5 |
| 20260504043532 | 45 | 0 | 0.0 | 0.0 | 0.00 | 0.03 | 0.00 | 84 | 1014.5 |
| 20260504043041 | 46 | 0 | 0.0 | 0.0 | 0.00 | 0.03 | 0.00 | 84 | 1014.4 |
| 20260504042532 | 46 | 0 | 0.0 | 0.0 | 0.00 | 0.03 | 0.00 | 84 | 1014.5 |
| 20260504042031 | 46 | 0 | 0.0 | 0.9 | 0.00 | 0.03 | 0.00 | 84 | 1014.5 |
| 20260504041537 | 46 | 0 | 0.0 | 0.9 | 0.00 | 0.03 | 0.00 | 83 | 1014.5 |
| 20260504041031 | 46 | 0 | 0.0 | 0.9 | 0.00 | 0.03 | 0.00 | 83 | 1014.5 |
| 20260504040531 | 46 | 0 | 0.0 | 0.9 | 0.00 | 0.03 | 0.00 | 83 | 1014.5 |
| 20260504040039 | 46 | 0 | 0.0 | 0.9 | 0.00 | 0.03 | 0.00 | 83 | 1014.5 |
| 20260504035532 | 47 | 0 | 0.0 | 0.9 | 0.00 | 0.08 | 0.00 | 83 | 1014.5 |
| 20260504035032 | 47 | 0 | 0.0 | 0.9 | 0.00 | 0.08 | 0.00 | 83 | 1014.6 |
| 20260504034537 | 47 | 283 | 0.0 | 1.7 | 0.00 | 0.08 | 0.00 | 83 | 1014.6 |
| 20260504034031 | 47 | 285 | 0.0 | 1.7 | 0.00 | 0.08 | 0.00 | 83 | 1014.6 |
| 20260504033531 | 47 | 281 | 0.9 | 1.7 | 0.00 | 0.08 | 0.00 | 83 | 1014.7 |
| 20260504033043 | 47 | 279 | 0.9 | 1.7 | 0.00 | 0.08 | 0.00 | 83 | 1014.6 |
| 20260504032533 | 47 | 289 | 0.0 | 1.7 | 0.00 | 0.08 | 0.00 | 83 | 1014.5 |
| 20260504032031 | 47 | 297 | 0.0 | 1.7 | 0.00 | 0.08 | 0.00 | 82 | 1014.6 |
| 20260504031541 | 47 | 297 | 0.0 | 1.7 | 0.00 | 0.08 | 0.00 | 82 | 1014.6 |
| 20260504031030 | 47 | 0 | 0.0 | 1.7 | 0.00 | 0.08 | 0.00 | 82 | 1014.7 |
| 20260504030531 | 47 | 283 | 0.9 | 2.6 | 0.00 | 0.08 | 0.00 | 82 | 1014.6 |
| 20260504030043 | 47 | 288 | 0.9 | 2.6 | 0.00 | 0.08 | 0.00 | 82 | 1014.5 |
| 20260504025531 | 47 | 284 | 0.9 | 1.7 | 0.00 | 0.11 | 0.00 | 82 | 1014.6 |
| 20260504025031 | 47 | 349 | 0.0 | 1.7 | 0.00 | 0.11 | 0.00 | 82 | 1014.4 |
| 20260504024549 | 47 | 13 | 0.0 | 0.9 | 0.00 | 0.11 | 0.00 | 82 | 1014.5 |
| 20260504024033 | 47 | 13 | 0.0 | 0.9 | 0.00 | 0.11 | 0.00 | 82 | 1014.5 |
| 20260504023531 | 47 | 0 | 0.0 | 0.9 | 0.00 | 0.11 | 0.00 | 82 | 1014.5 |
| 20260504023043 | 47 | 0 | 0.0 | 0.9 | 0.00 | 0.11 | 0.00 | 82 | 1014.5 |
| 20260504022533 | 47 | 0 | 0.0 | 0.9 | 0.00 | 0.11 | 0.00 | 82 | 1014.4 |
| 20260504022033 | 47 | 0 | 0.0 | 0.9 | 0.00 | 0.11 | 0.00 | 82 | 1014.3 |
| 20260504021538 | 47 | 0 | 0.0 | 0.0 | 0.00 | 0.11 | 0.00 | 82 | 1014.4 |
| 20260504021032 | 47 | 0 | 0.0 | 0.0 | 0.00 | 0.11 | 0.00 | 82 | 1014.4 |
| 20260504020531 | 47 | 0 | 0.0 | 0.9 | 0.00 | 0.11 | 0.00 | 82 | 1014.4 |
| 20260504020057 | 47 | 0 | 0.0 | 0.9 | 0.00 | 0.11 | 0.00 | 82 | 1014.4 |
| 20260504015532 | 47 | 0 | 0.0 | 0.0 | 0.00 | 0.14 | 0.00 | 82 | 1014.4 |
| 20260504015031 | 47 | 0 | 0.0 | 0.0 | 0.00 | 0.14 | 0.00 | 82 | 1014.3 |
| 20260504014554 | 47 | 0 | 0.0 | 0.0 | 0.00 | 0.14 | 0.00 | 83 | 1014.4 |
| 20260504014031 | 47 | 0 | 0.0 | 0.0 | 0.00 | 0.14 | 0.00 | 83 | 1014.5 |
| 20260504013531 | 47 | 0 | 0.0 | 0.0 | 0.00 | 0.14 | 0.00 | 83 | 1014.3 |
| 20260504013055 | 47 | 0 | 0.0 | 0.0 | 0.00 | 0.14 | 0.00 | 83 | 1014.3 |
| 20260504012531 | 47 | 0 | 0.0 | 0.0 | 0.00 | 0.14 | 0.00 | 83 | 1014.4 |
| 20260504012030 | 47 | 0 | 0.0 | 0.0 | 0.00 | 0.14 | 0.00 | 83 | 1014.3 |
| 20260504011545 | 47 | 0 | 0.0 | 0.0 | 0.00 | 0.14 | 0.00 | 83 | 1014.3 |
| 20260504011030 | 47 | 0 | 0.0 | 0.0 | 0.00 | 0.14 | 0.00 | 83 | 1014.3 |
| 20260504010533 | 47 | 0 | 0.0 | 0.0 | 0.00 | 0.14 | 0.00 | 83 | 1014.3 |
| 20260504010045 | 47 | 0 | 0.0 | 0.0 | 0.00 | 0.14 | 0.00 | 83 | 1014.3 |
| 20260504005531 | 47 | 0 | 0.0 | 0.0 | 0.00 | 0.18 | 0.00 | 83 | 1014.2 |
| 20260504005032 | 48 | 0 | 0.0 | 0.0 | 0.00 | 0.18 | 0.00 | 83 | 1014.2 |
| 20260504004618 | 48 | 0 | 0.0 | 0.0 | 0.00 | 0.18 | 0.00 | 83 | 1014.2 |
| 20260504004027 | 48 | 0 | 0.0 | 0.9 | 0.00 | 0.18 | 0.00 | 83 | 1014.2 |
| 20260504003532 | 48 | 0 | 0.0 | 0.9 | 0.00 | 0.18 | 0.00 | 83 | 1014.3 |
| 20260504003040 | 48 | 0 | 0.0 | 0.9 | 0.00 | 0.18 | 0.00 | 82 | 1014.2 |
| 20260504002531 | 47 | 0 | 0.0 | 0.0 | 0.00 | 0.18 | 0.00 | 82 | 1014.3 |
| 20260504002031 | 48 | 0 | 0.0 | 0.0 | 0.00 | 0.18 | 0.00 | 82 | 1014.3 |
| 20260504001615 | 48 | 0 | 0.0 | 0.0 | 0.00 | 0.18 | 0.00 | 82 | 1014.3 |
| 20260504001033 | 47 | 0 | 0.0 | 0.0 | 0.00 | 0.18 | 0.00 | 82 | 1014.3 |
| 20260504000534 | 47 | 0 | 0.0 | 0.0 | 0.00 | 0.18 | 0.00 | 82 | 1014.3 |
| 20260504000045 | 47 | 0 | 0.0 | 0.0 | 0.00 | 0.18 | 0.00 | 82 | 1014.3 |
| 20260503235531 | 48 | 0 | 0.0 | 0.0 | 0.00 | 0.19 | 0.00 | 82 | 1014.3 |
| 20260503235031 | 48 | 0 | 0.0 | 0.0 | 0.00 | 0.19 | 0.00 | 82 | 1014.3 |
| 20260503234539 | 48 | 0 | 0.0 | 0.0 | 0.00 | 0.19 | 0.00 | 82 | 1014.2 |
| 20260503234031 | 48 | 0 | 0.0 | 0.0 | 0.00 | 0.19 | 0.00 | 82 | 1014.3 |
| 20260503233529 | 48 | 0 | 0.0 | 0.0 | 0.00 | 0.19 | 0.00 | 82 | 1014.2 |
| 20260503233041 | 47 | 0 | 0.0 | 0.0 | 0.00 | 0.19 | 0.00 | 82 | 1014.2 |
| 20260503232527 | 47 | 0 | 0.0 | 0.0 | 0.00 | 0.19 | 0.00 | 82 | 1014.3 |
| 20260503232031 | 47 | 0 | 0.0 | 0.9 | 0.00 | 0.19 | 0.00 | 82 | 1014.3 |
| 20260503231543 | 47 | 0 | 0.0 | 0.9 | 0.00 | 0.19 | 0.00 | 82 | 1014.3 |
| 20260503231032 | 47 | 0 | 0.0 | 0.9 | 0.00 | 0.19 | 0.00 | 82 | 1014.3 |
| 20260503230531 | 47 | 0 | 0.0 | 0.9 | 0.00 | 0.19 | 0.00 | 82 | 1014.3 |
| 20260503230105 | 47 | 0 | 0.0 | 0.9 | 0.00 | 0.19 | 0.00 | 82 | 1014.4 |
| 20260503225531 | 47 | 0 | 0.0 | 0.0 | 0.00 | 0.37 | 0.19 | 81 | 1014.3 |
| 20260503225034 | 47 | 0 | 0.0 | 0.0 | 0.00 | 0.37 | 0.19 | 81 | 1014.3 |
| 20260503224540 | 47 | 0 | 0.0 | 0.0 | 0.00 | 0.37 | 0.19 | 81 | 1014.3 |
| 20260503224034 | 47 | 0 | 0.0 | 0.0 | 0.00 | 0.37 | 0.19 | 81 | 1014.2 |
| 20260503223528 | 48 | 0 | 0.0 | 0.0 | 0.00 | 0.37 | 0.19 | 80 | 1014.1 |
| 20260503223109 | 48 | 0 | 0.0 | 0.0 | 0.00 | 0.37 | 0.19 | 80 | 1014.2 |
| 20260503222531 | 48 | 0 | 0.0 | 0.0 | 0.00 | 0.37 | 0.19 | 80 | 1014.1 |
| 20260503222033 | 48 | 0 | 0.0 | 0.9 | 0.00 | 0.37 | 0.19 | 80 | 1014.0 |
| 20260503221545 | 48 | 0 | 0.0 | 0.9 | 0.00 | 0.37 | 0.19 | 80 | 1014.1 |
| 20260503221031 | 48 | 0 | 0.0 | 0.9 | 0.00 | 0.37 | 0.19 | 80 | 1014.1 |
| 20260503220531 | 48 | 98 | 0.0 | 0.9 | 0.00 | 0.37 | 0.19 | 80 | 1014.1 |
| 20260503220048 | 48 | 0 | 0.0 | 0.0 | 0.00 | 0.37 | 0.19 | 80 | 1014.2 |
| 20260503215530 | 48 | 0 | 0.0 | 0.9 | 0.00 | 0.51 | 0.19 | 79 | 1014.2 |
| 20260503215031 | 48 | 0 | 0.0 | 0.9 | 0.00 | 0.51 | 0.19 | 79 | 1014.2 |
| 20260503214540 | 49 | 98 | 0.0 | 0.9 | 0.00 | 0.51 | 0.19 | 79 | 1014.3 |
| 20260503214035 | 49 | 0 | 0.0 | 0.9 | 0.00 | 0.51 | 0.19 | 79 | 1014.3 |
| 20260503213528 | 49 | 0 | 0.0 | 0.0 | 0.00 | 0.51 | 0.19 | 79 | 1014.2 |
| 20260503213037 | 49 | 0 | 0.0 | 0.0 | 0.00 | 0.51 | 0.19 | 79 | 1014.1 |
| 20260503212532 | 49 | 0 | 0.0 | 0.0 | 0.00 | 0.51 | 0.19 | 79 | 1014.2 |
| 20260503212032 | 49 | 0 | 0.0 | 0.0 | 0.00 | 0.51 | 0.19 | 79 | 1014.2 |
| 20260503211537 | 49 | 0 | 0.0 | 0.0 | 0.00 | 0.51 | 0.19 | 78 | 1014.2 |
| 20260503211031 | 49 | 0 | 0.0 | 0.0 | 0.00 | 0.51 | 0.19 | 78 | 1014.2 |
| 20260503210527 | 49 | 0 | 0.0 | 0.0 | 0.00 | 0.51 | 0.19 | 78 | 1014.2 |
| 20260503210045 | 49 | 0 | 0.0 | 0.0 | 0.00 | 0.51 | 0.19 | 78 | 1014.2 |
| 20260503205531 | 49 | 0 | 0.0 | 0.9 | 0.00 | 0.51 | 0.19 | 78 | 1014.2 |
| 20260503205031 | 49 | 0 | 0.0 | 0.9 | 0.00 | 0.51 | 0.19 | 77 | 1014.2 |
| 20260503204543 | 50 | 0 | 0.0 | 0.9 | 0.00 | 0.51 | 0.19 | 77 | 1014.1 |
| 20260503204031 | 50 | 0 | 0.0 | 0.9 | 0.00 | 0.51 | 0.19 | 77 | 1014.2 |
| 20260503203531 | 50 | 0 | 0.0 | 0.0 | 0.00 | 0.51 | 0.19 | 77 | 1014.1 |
| 20260503203052 | 50 | 0 | 0.0 | 0.0 | 0.00 | 0.51 | 0.19 | 76 | 1014.1 |
| 20260503202528 | 50 | 0 | 0.0 | 0.9 | 0.00 | 0.51 | 0.19 | 76 | 1014.2 |
| 20260503202028 | 50 | 0 | 0.0 | 1.7 | 0.00 | 0.51 | 0.19 | 76 | 1014.1 |
| 20260503201545 | 50 | 0 | 0.0 | 1.7 | 0.00 | 0.51 | 0.19 | 76 | 1014.0 |
| 20260503201031 | 50 | 98 | 0.0 | 0.0 | 0.00 | 0.51 | 0.19 | 76 | 1013.9 |
| 20260503200531 | 50 | 0 | 0.0 | 1.7 | 0.00 | 0.51 | 0.19 | 75 | 1013.8 |
| 20260503200037 | 50 | 0 | 0.0 | 1.7 | 0.00 | 0.51 | 0.19 | 75 | 1013.8 |
| 20260503195531 | 50 | 0 | 0.0 | 2.6 | 0.00 | 0.51 | 0.19 | 75 | 1013.8 |
| 20260503195031 | 50 | 0 | 0.0 | 2.6 | 0.00 | 0.51 | 0.19 | 74 | 1013.7 |
| 20260503194545 | 50 | 86 | 0.9 | 2.6 | 0.00 | 0.51 | 0.19 | 74 | 1013.7 |
| 20260503194031 | 50 | 50 | 0.9 | 3.5 | 0.00 | 0.51 | 0.19 | 74 | 1013.6 |
| 20260503193531 | 51 | 66 | 0.9 | 3.5 | 0.00 | 0.51 | 0.19 | 74 | 1013.6 |
| 20260503193043 | 51 | 63 | 0.9 | 3.5 | 0.00 | 0.51 | 0.19 | 73 | 1013.5 |
| 20260503192531 | 51 | 68 | 0.0 | 3.5 | 0.00 | 0.51 | 0.19 | 74 | 1013.6 |
| 20260503192033 | 51 | 92 | 1.7 | 3.5 | 0.00 | 0.51 | 0.19 | 73 | 1013.4 |
| 20260503191546 | 51 | 82 | 1.7 | 5.2 | 0.00 | 0.51 | 0.19 | 73 | 1013.5 |
| 20260503191031 | 51 | 86 | 1.7 | 5.2 | 0.00 | 0.51 | 0.19 | 73 | 1013.5 |
| 20260503190533 | 51 | 126 | 2.6 | 5.2 | 0.00 | 0.51 | 0.19 | 73 | 1013.4 |
| 20260503190042 | 51 | 119 | 1.7 | 5.2 | 0.00 | 0.51 | 0.19 | 73 | 1013.5 |
| 20260503185530 | 51 | 92 | 1.7 | 3.5 | 0.00 | 0.51 | 0.19 | 73 | 1013.4 |
| 20260503185034 | 51 | 87 | 1.7 | 5.2 | 0.00 | 0.51 | 0.19 | 73 | 1013.5 |
| 20260503184537 | 52 | 58 | 1.7 | 5.2 | 0.00 | 0.51 | 0.19 | 73 | 1013.5 |
| 20260503184030 | 52 | 104 | 1.7 | 6.1 | 0.00 | 0.51 | 0.19 | 73 | 1013.4 |
| 20260503183534 | 52 | 84 | 1.7 | 6.1 | 0.00 | 0.51 | 0.19 | 72 | 1013.4 |
| 20260503183040 | 52 | 90 | 1.7 | 5.2 | 0.00 | 0.51 | 0.19 | 72 | 1013.2 |